• In Latvia
  • List of Countries
  • For 7 days
  • Water Temperature
  • Satellite Maps
  • Weather Map
  • Weather Widgets
  • user-avatar
    Login

    Hourly Weather Latiano

    Today, 18 February, Sunday

    Time Temperature Precipitation Wind Pressure Humidity
    00:00 +10°C° 0 mm 3 mps 755 mmHg 76%
    01:00 +10°C° 0 mm 4 mps 755 mmHg 77%
    02:00 +10°C° 0 mm 4 mps 755 mmHg 79%
    03:00 +10°C° 0 mm 4 mps 754 mmHg 80%
    04:00 +10°C° 0 mm 4 mps 754 mmHg 82%
    05:00 +10°C° 0 mm 4 mps 754 mmHg 82%
    06:00 +10°C° 0 mm 4 mps 754 mmHg 83%
    07:00 +9°C° 0 mm 5 mps 753 mmHg 83%
    08:00 +10°C° 0 mm 5 mps 753 mmHg 78%
    09:00 +12°C° 0 mm 5 mps 753 mmHg 73%
    10:00 +13°C° 0 mm 5 mps 753 mmHg 68%
    11:00 +13°C° 0 mm 5 mps 753 mmHg 65%
    12:00 +14°C° 0 mm 5 mps 753 mmHg 63%
    13:00 +14°C° 0 mm 5 mps 753 mmHg 60%
    14:00 +14°C° 0 mm 5 mps 752 mmHg 62%
    15:00 +13°C° 0 mm 5 mps 752 mmHg 64%
    16:00 +13°C° 0 mm 4 mps 752 mmHg 65%
    17:00 +12°C° 0 mm 4 mps 752 mmHg 68%
    18:00 +12°C° 0 mm 4 mps 752 mmHg 72%
    19:00 +11°C° 0 mm 3 mps 752 mmHg 75%
    20:00 +11°C° 0 mm 3 mps 752 mmHg 76%
    21:00 +11°C° 0 mm 3 mps 752 mmHg 78%
    22:00 +11°C° 0 mm 3 mps 752 mmHg 79%
    23:00 +11°C° 0.1 mm 3 mps 751 mmHg 79%

    Tomorrow, 19 February, Monday

    Time Temperature Precipitation Wind Pressure Humidity
    00:00 +12°C° 0.1 mm 2 mps 751 mmHg 79%
    01:00 +12°C° 0.1 mm 2 mps 751 mmHg 80%
    02:00 +10°C° 0.2 mm 2 mps 751 mmHg 81%
    03:00 +10°C° 0.2 mm 2 mps 750 mmHg 82%
    04:00 +10°C° 0.2 mm 2 mps 750 mmHg 83%
    05:00 +10°C° 0.3 mm 2 mps 750 mmHg 84%
    06:00 +10°C° 0.3 mm 2 mps 750 mmHg 85%
    07:00 +10°C° 0.3 mm 2 mps 750 mmHg 87%
    08:00 +10°C° 0.3 mm 2 mps 750 mmHg 83%
    09:00 +12°C° 0.3 mm 2 mps 750 mmHg 80%
    10:00 +13°C° 0.3 mm 2 mps 750 mmHg 77%
    11:00 +13°C° 0.3 mm 2 mps 750 mmHg 73%
    12:00 +14°C° 0.3 mm 2 mps 750 mmHg 69%
    13:00 +14°C° 0.3 mm 2 mps 750 mmHg 65%
    14:00 +14°C° 0.2 mm 2 mps 749 mmHg 65%
    15:00 +14°C° 0.2 mm 2 mps 749 mmHg 65%
    16:00 +14°C° 0.2 mm 2 mps 749 mmHg 65%
    17:00 +13°C° 0 mm 2 mps 749 mmHg 69%
    18:00 +13°C° 0 mm 2 mps 749 mmHg 72%
    19:00 +12°C° 0 mm 2 mps 749 mmHg 76%
    20:00 +10°C° 0 mm 2 mps 749 mmHg 77%
    21:00 +10°C° 0 mm 2 mps 749 mmHg 78%
    22:00 +10°C° 0 mm 2 mps 749 mmHg 79%
    23:00 +10°C° 0.1 mm 2 mps 749 mmHg 79%

    Day after tomorrow, 20 February, Tuesday

    Time Temperature Precipitation Wind Pressure Humidity
    00:00 +10°C° 0.1 mm 2 mps 749 mmHg 80%
    01:00 +9°C° 0.1 mm 2 mps 748 mmHg 81%
    02:00 +10°C° 0.1 mm 1 mps 748 mmHg 82%
    03:00 +10°C° 0.1 mm 1 mps 748 mmHg 83%
    04:00 +10°C° 0.1 mm 1 mps 747 mmHg 84%
    05:00 +10°C° 0.1 mm 1 mps 747 mmHg 85%
    06:00 +10°C° 0.1 mm 1 mps 747 mmHg 85%
    07:00 +9°C° 0.1 mm 2 mps 747 mmHg 86%
    08:00 +10°C° 0.1 mm 2 mps 747 mmHg 80%
    09:00 +12°C° 0.1 mm 2 mps 747 mmHg 75%
    10:00 +13°C° 0.1 mm 3 mps 747 mmHg 70%
    11:00 +13°C° 0.2 mm 3 mps 747 mmHg 67%
    12:00 +14°C° 0.2 mm 3 mps 747 mmHg 64%
    13:00 +14°C° 0.2 mm 3 mps 746 mmHg 61%
    14:00 +14°C° 0.2 mm 3 mps 746 mmHg 62%
    15:00 +14°C° 0.2 mm 3 mps 746 mmHg 63%
    16:00 +13°C° 0.2 mm 4 mps 745 mmHg 64%
    17:00 +12°C° 0.3 mm 3 mps 745 mmHg 70%
    18:00 +11°C° 0.3 mm 3 mps 745 mmHg 75%
    19:00 +11°C° 0.3 mm 3 mps 745 mmHg 80%
    20:00 +10°C° 0.4 mm 3 mps 745 mmHg 81%
    21:00 +10°C° 0.4 mm 3 mps 745 mmHg 81%
    22:00 +10°C° 0.4 mm 2 mps 745 mmHg 82%
    23:00 +10°C° 0.3 mm 3 mps 745 mmHg 82%

    21 February, Wednesday

    Time Temperature Precipitation Wind Pressure Humidity
    00:00 +10°C° 0.3 mm 3 mps 745 mmHg 82%
    01:00 +10°C° 0.3 mm 3 mps 745 mmHg 82%
    02:00 +10°C° 0.2 mm 3 mps 744 mmHg 82%
    03:00 +9°C° 0.2 mm 3 mps 744 mmHg 82%
    04:00 +9°C° 0.2 mm 3 mps 744 mmHg 82%
    05:00 +9°C° 0.2 mm 3 mps 744 mmHg 82%
    06:00 +9°C° 0.2 mm 3 mps 744 mmHg 82%
    07:00 +9°C° 0.2 mm 3 mps 744 mmHg 83%
    08:00 +10°C° 0.3 mm 3 mps 744 mmHg 80%
    09:00 +10°C° 0.3 mm 3 mps 744 mmHg 78%
    10:00 +11°C° 0.3 mm 3 mps 744 mmHg 76%
    11:00 +12°C° 0.9 mm 2 mps 744 mmHg 77%
    12:00 +10°C° 0.9 mm 2 mps 743 mmHg 78%
    13:00 +10°C° 0.9 mm 2 mps 743 mmHg 79%
    14:00 +10°C° 0.8 mm 2 mps 743 mmHg 80%
    15:00 +10°C° 0.8 mm 2 mps 742 mmHg 80%
    16:00 +10°C° 0.8 mm 1 mps 742 mmHg 81%
    17:00 +9°C° 1.7 mm 2 mps 742 mmHg 84%
    18:00 +8°C° 1.7 mm 2 mps 742 mmHg 87%
    19:00 +8°C° 1.7 mm 2 mps 742 mmHg 91%
    20:00 +8°C° 1.2 mm 2 mps 742 mmHg 90%
    21:00 +8°C° 1.2 mm 2 mps 742 mmHg 89%
    22:00 +7°C° 1.2 mm 2 mps 742 mmHg 88%
    23:00 +7°C° 0.1 mm 2 mps 742 mmHg 88%

    22 February, Thursday

    Time Temperature Precipitation Wind Pressure Humidity
    00:00 +7°C° 0.1 mm 2 mps 742 mmHg 88%
    01:00 +7°C° 0.1 mm 2 mps 742 mmHg 89%
    02:00 +7°C° 0 mm 2 mps 742 mmHg 89%
    03:00 +7°C° 0 mm 2 mps 742 mmHg 89%
    04:00 +7°C° 0 mm 3 mps 742 mmHg 88%
    05:00 +8°C° 0.1 mm 3 mps 742 mmHg 88%
    06:00 +7°C° 0.1 mm 4 mps 741 mmHg 87%
    07:00 +7°C° 0.1 mm 4 mps 741 mmHg 87%
    08:00 +8°C° 0.4 mm 5 mps 741 mmHg 83%
    09:00 +9°C° 0.4 mm 7 mps 741 mmHg 79%
    10:00 +10°C° 0.4 mm 8 mps 741 mmHg 74%
    11:00 +11°C° 0.5 mm 8 mps 741 mmHg 72%
    12:00 +11°C° 0.5 mm 8 mps 741 mmHg 70%
    13:00 +12°C° 0.5 mm 9 mps 741 mmHg 68%
    14:00 +12°C° 0.2 mm 8 mps 741 mmHg 66%
    15:00 +12°C° 0.2 mm 8 mps 741 mmHg 65%
    16:00 +12°C° 0.2 mm 8 mps 740 mmHg 64%
    17:00 +11°C° 0 mm 7 mps 741 mmHg 67%
    18:00 +10°C° 0 mm 6 mps 741 mmHg 70%
    19:00 +10°C° 0 mm 6 mps 741 mmHg 74%
    20:00 +10°C° 0 mm 6 mps 742 mmHg 74%
    21:00 +9°C° 0 mm 5 mps 742 mmHg 74%
    22:00 +9°C° 0 mm 5 mps 742 mmHg 75%
    23:00 +9°C° 0.2 mm 5 mps 741 mmHg 77%

    23 February, Friday

    Time Temperature Precipitation Wind Pressure Humidity
    00:00 +9°C° 0.2 mm 6 mps 741 mmHg 80%
    01:00 +9°C° 0.2 mm 6 mps 741 mmHg 83%
    02:00 +10°C° 1.1 mm 7 mps 740 mmHg 83%
    03:00 +10°C° 1.1 mm 9 mps 739 mmHg 83%
    04:00 +9°C° 1.1 mm 10 mps 739 mmHg 83%
    05:00 +8°C° 1.2 mm 9 mps 739 mmHg 85%
    06:00 +9°C° 1.2 mm 8 mps 738 mmHg 86%
    07:00 +8°C° 1.2 mm 7 mps 738 mmHg 87%
    08:00 +9°C° 0.5 mm 6 mps 738 mmHg 80%
    09:00 +10°C° 0.5 mm 6 mps 739 mmHg 73%
    10:00 +11°C° 0.5 mm 6 mps 739 mmHg 65%
    11:00 +11°C° 0 mm 6 mps 739 mmHg 62%
    12:00 +13°C° 0 mm 6 mps 740 mmHg 58%
    13:00 +13°C° 0 mm 6 mps 740 mmHg 55%
    14:00 +12°C° 0.1 mm 7 mps 740 mmHg 55%
    15:00 +12°C° 0.1 mm 7 mps 740 mmHg 55%
    16:00 +12°C° 0.1 mm 7 mps 740 mmHg 55%
    17:00 +11°C° 0 mm 7 mps 741 mmHg 58%
    18:00 +10°C° 0 mm 6 mps 741 mmHg 60%
    19:00 +9°C° 0 mm 6 mps 741 mmHg 63%
    20:00 +9°C° 0 mm 6 mps 742 mmHg 64%
    21:00 +8°C° 0 mm 6 mps 742 mmHg 65%
    22:00 +8°C° 0 mm 6 mps 743 mmHg 66%
    23:00 +8°C° 0 mm 6 mps 743 mmHg 67%
    Show more